STARLINK-30231 (57514 NORAD) Tracking and Keplerian Element Data

This shows tracking and keplerian element data for the satellite.

Feedback or suggestion? Click here.




ElementValue
Catalog57514
NameSTARLINK-30231
Epoch Orbit438
Epoch Day238.91667824
Epoch Year2023
RAAN12.1771
Inclination43.0005
Eccentricity0.0001221
Argument of Perigee247.3309
Mean Anonmoly266.1209
Mean Motion15.51337257
Decay Rate-0.01684394
L11 57514U 23113V 23238.91667824 -.01684394 00000+0 -31242-1 0 9992
L22 57514 43.0005 12.1771 0001221 247.3309 266.1209 15.51337257 4389



Live tracking and technical data element details for STARLINK-30231 (NORAD 57514). STARLINK-30231 can be tracked NOW for your location showing map with azimuth and elevation plus other details from your city location.







IsCatalogInMostPopularTable: catalog: 57514, numindb: 6
Update: records affected: 1



GetName: 57514 STARLINK-30231

Hit Count: updated at: Tue, 26 Sep 2023 13:35:43 GMT